Theta_e
349 349 346 344 344 341 337 333 327 321 321 327 327 335 336 334 341 337 339 341 343 340 336 335 335 336 337 338 339 339 339 339 340 340 341 344 347 349
345 345 343 340 337 335 334 333 331 326 320 327 328 329 333 338 337 337 337 338 337 338 335 334 334 335 335 336 337 337 337 337 337 337 338 339 340 343
341 337 338 340 337 330 330 330 329 327 322 325 328 331 331 333 333 334 334 333 334 336 336 336 334 333 333 334 335 335 335 336 336 336 337 337 339 340
335 335 333 333 332 332 331 328 327 328 324 320 325 325 326 329 329 330 330 332 332 334 335 333 333 332 330 330 330 330 330 331 332 333 334 335 337 339
330 330 331 331 328 328 328 326 327 326 325 322 320 323 324 327 327 328 329 329 332 335 332 331 329 330 328 328 327 325 323 323 325 326 328 330 332 336
329 331 330 328 325 325 325 324 324 322 322 321 320 321 323 325 326 324 323 326 326 331 333 331 331 332 332 329 328 327 322 319 318 320 321 321 323 327
330 328 326 327 325 322 318 318 318 318 317 317 317 319 320 321 320 322 321 323 324 326 326 327 326 326 325 326 328 329 326 324 320 318 318 318 317 319
325 326 326 325 319 318 317 318 317 315 315 316 317 317 318 320 321 320 320 319 317 326 324 323 325 321 322 323 325 324 323 324 323 321 319 318 317 316
325 324 320 319 315 311 312 313 315 320 321 315 311 315 317 320 319 318 318 318 318 324 323 318 319 317 319 320 322 321 322 321 321 320 319 318 316 315
323 321 319 314 308 306 306 309 312 315 316 312 309 311 315 317 318 318 318 319 322 323 323 314 318 315 318 318 320 320 318 318 318 319 318 317 315 313
321 311 310 308 305 305 303 305 308 306 311 313 313 314 315 317 319 319 317 316 313 314 318 316 315 314 315 315 316 318 317 315 315 317 318 317 314 312
316 316 308 305 304 303 302 302 300 300 302 304 308 313 318 320 316 320 320 314 313 312 316 313 313 313 309 314 314 317 318 317 313 313 313 314 312 318
312 313 312 305 302 301 302 303 299 302 303 305 310 311 308 308 308 312 318 318 312 310 315 315 313 312 310 309 312 314 316 317 320 319 309 309 308 316
313 312 312 303 301 301 301 302 302 304 306 306 305 304 305 305 308 314 314 318 317 314 315 315 312 312 311 310 309 314 315 318 321 322 326 315 308 309
311 311 306 303 302 304 304 304 305 307 306 304 303 303 305 307 310 313 313 314 316 315 316 317 316 316 315 314 313 313 313 316 319 322 326 327 327 316
309 310 310 307 305 306 308 308 308 307 305 304 305 307 307 308 309 310 309 310 310 311 316 319 319 317 315 316 317 314 316 313 319 320 325 327 328 331
301 310 308 306 305 304 305 306 306 306 304 305 306 306 306 306 307 310 310 310 308 309 312 317 318 319 314 313 313 315 315 316 318 322 323 324 330 333
303 306 304 304 303 302 302 303 304 305 304 304 305 304 304 305 306 309 310 310 308 310 311 316 315 314 315 313 313 308 314 317 319 321 322 325 326 332
308 305 304 304 303 302 302 302 302 304 305 303 304 304 304 305 306 307 308 309 309 311 314 316 314 312 309 307 313 310 307 311 315 320 324 327 326 330
306 305 304 304 304 303 303 302 302 304 303 302 303 304 304 305 306 307 308 308 309 313 314 317 315 313 310 309 310 312 307 307 310 317 321 326 328 323
304 305 307 305 305 304 304 304 304 303 302 301 301 303 305 306 308 307 308 305 306 311 313 314 318 315 318 316 311 311 314 309 308 308 313 320 321 326
304 304 306 307 306 306 305 304 303 301 300 300 301 304 305 306 308 307 308 308 309 310 315 316 320 319 316 311 310 311 313 314 311 309 308 308 310 314
305 305 304 305 305 304 304 303 302 300 299 299 301 303 304 305 307 308 308 309 309 310 312 314 316 316 314 315 311 311 312 313 313 310 308 308 307 307
Wind_Speed
5 5 5 6 6 5 6 6 8 11 10 7 7 6 6 5 6 7 6 8 10 8 11 14 15 17 18 18 18 17 17 16 17 17 17 16 16 15
4 6 6 5 7 6 7 8 7 9 12 7 7 9 8 7 8 7 7 13 13 12 11 15 16 14 15 15 18 17 16 16 16 17 17 16 15 14
7 7 8 7 4 6 6 7 7 7 11 11 10 10 12 10 9 9 10 10 10 13 13 15 14 15 15 14 14 17 18 18 17 17 16 16 15 14
10 9 9 8 9 8 7 9 9 8 7 13 9 10 10 11 9 11 10 10 10 14 16 11 14 16 15 16 17 17 18 19 19 17 16 17 16 15
12 11 11 10 10 9 7 7 7 7 8 9 12 11 10 9 10 9 6 8 8 14 16 12 14 14 17 16 17 16 18 16 16 17 16 17 15 15
11 10 10 11 11 11 10 12 10 11 10 9 10 11 10 10 8 7 6 7 8 9 12 12 13 13 13 17 15 16 18 18 18 17 16 15 14 14
8 9 10 13 18 15 8 10 12 11 10 11 11 11 9 9 9 7 8 9 10 7 7 6 7 7 9 11 13 15 17 17 16 17 17 17 15 14
9 7 8 11 15 19 21 21 17 11 13 9 11 11 13 9 8 7 9 9 8 6 4 9 7 8 9 8 16 23 21 15 14 14 17 18 17 15
8 8 9 9 12 12 18 22 20 19 15 8 11 11 10 9 9 12 11 9 10 11 10 11 6 10 11 12 19 25 23 14 15 13 18 18 16 15
9 8 7 9 11 13 13 13 13 13 9 8 9 12 11 12 10 9 11 11 10 10 10 11 11 14 13 12 21 24 21 16 13 14 14 17 17 16
7 8 7 8 16 18 12 13 12 11 12 17 18 20 22 21 17 6 7 8 10 10 10 7 12 13 13 14 12 22 22 20 15 15 17 18 18 17
7 2 14 12 15 17 11 10 11 11 14 15 12 12 12 9 16 9 5 8 10 10 9 10 13 9 8 7 10 8 8 11 17 18 20 19 18 8
5 6 5 11 10 13 13 8 10 15 16 10 9 7 10 10 10 10 8 3 8 12 17 14 11 12 7 9 6 7 8 9 8 6 16 18 16 14
6 6 4 7 7 11 11 15 18 18 8 8 9 9 8 10 10 10 9 8 8 14 18 18 12 12 11 12 10 4 6 7 7 7 3 7 14 16
6 10 5 6 8 9 12 19 15 6 7 8 8 8 8 9 9 8 12 8 11 14 14 16 13 12 9 9 7 3 3 4 5 3 5 3 4 4
11 10 3 4 6 8 7 6 8 8 9 9 9 8 8 9 9 9 10 11 11 14 18 16 17 13 5 7 5 2 3 3 1 5 3 3 3 3
13 6 5 7 8 8 8 8 8 9 9 9 8 9 9 9 10 11 9 11 9 11 16 15 16 14 5 6 5 4 2 3 4 3 3 4 5 5
6 5 7 7 8 9 10 10 9 11 9 9 9 9 10 10 11 11 12 11 10 8 11 13 13 12 6 5 16 9 5 3 4 4 3 5 3 4
1 5 5 5 6 7 8 10 10 9 8 9 8 9 10 10 13 11 12 12 11 7 10 9 11 10 9 9 2 16 7 4 5 4 4 3 2 4
5 5 5 6 6 7 7 8 9 9 8 9 10 10 10 11 12 12 11 12 12 9 12 7 9 12 11 9 5 4 15 7 4 5 4 4 2 1
5 5 3 4 5 6 6 7 8 8 9 9 10 11 11 11 12 12 11 12 11 10 12 12 7 9 7 5 6 7 7 16 14 6 7 4 4 3
5 6 4 5 5 6 6 7 7 9 9 10 10 10 11 13 11 13 11 10 10 9 8 9 11 8 8 11 11 12 8 6 14 25 26 17 5 4
5 6 6 6 7 7 8 9 9 9 9 10 10 11 12 13 11 12 10 10 10 9 8 9 9 9 11 8 9 11 15 13 6 10 13 23 28 25
Wind_Direction
299 295 288 287 272 280 296 302 300 311 308 310 314 295 352 331 336 329 317 310 328 299 287 283 280 277 268 260 254 248 251 252 253 260 264 262 261 265
311 309 307 313 318 319 333 331 324 310 305 320 328 329 311 333 311 321 323 313 307 290 282 276 276 263 265 264 256 251 246 246 246 248 254 256 252 253
338 321 316 316 339 318 309 306 322 339 313 317 327 332 328 325 330 323 316 312 297 286 290 275 264 270 256 255 250 248 246 243 244 243 244 251 248 248
334 341 332 330 327 318 337 336 323 323 331 314 319 313 308 311 318 305 307 300 298 300 285 292 275 269 265 252 248 242 239 236 239 242 241 241 242 239
337 326 329 354 359 342 329 313 319 324 314 309 308 301 296 302 307 299 291 296 303 303 304 292 279 275 272 264 248 248 245 239 234 239 241 242 236 233
320 326 355 3 355 357 351 347 347 328 321 307 298 295 300 300 299 299 314 306 304 304 294 293 296 292 285 280 258 250 247 238 232 229 233 239 235 230
338 349 357 348 18 18 2 342 333 324 308 303 303 305 301 314 314 321 310 303 306 270 286 300 303 308 309 303 300 298 258 241 231 221 225 229 231 230
324 338 352 19 14 359 344 335 322 306 299 308 304 289 294 309 316 314 305 309 309 266 323 300 284 303 301 292 298 291 274 243 250 235 226 224 227 222
341 22 4 20 16 350 335 328 322 319 326 351 326 326 324 323 311 307 309 305 294 291 302 290 286 296 302 296 295 286 283 231 229 247 218 217 221 216
355 35 15 15 12 348 330 321 326 325 341 333 307 299 298 298 287 281 292 295 288 311 322 301 304 298 299 290 284 282 292 290 239 243 226 213 206 206
21 47 43 21 358 358 336 326 329 321 316 313 309 303 294 285 271 281 303 318 322 317 308 295 304 297 289 286 277 268 268 269 254 230 234 207 211 209
356 31 59 35 7 353 334 324 324 319 320 318 317 313 313 338 349 325 332 328 327 314 317 302 298 297 289 276 271 268 298 297 262 233 228 211 203 200
331 344 24 16 359 344 326 307 312 309 302 300 310 345 341 345 332 325 331 24 341 315 301 307 297 293 270 288 263 257 272 283 280 261 213 210 194 195
326 332 345 342 333 325 317 313 313 312 291 334 350 343 337 336 330 325 340 319 297 292 296 295 283 287 284 281 271 234 251 272 256 267 216 187 194 204
356 319 278 300 350 317 315 316 311 328 352 348 342 334 340 316 324 322 316 300 291 306 305 299 296 290 281 284 279 221 225 261 259 296 279 158 162 162
353 312 306 266 262 270 311 328 359 354 359 340 338 335 339 337 326 326 319 326 325 323 328 330 334 332 311 316 307 279 203 272 21 262 299 334 237 207
324 299 7 359 2 358 356 356 5 352 352 349 341 349 341 335 331 325 321 320 320 326 330 337 345 338 45 7 343 316 269 268 276 307 314 281 247 205
301 17 20 5 6 2 356 350 358 353 352 350 344 348 336 331 325 323 325 326 328 322 331 332 345 347 5 57 50 0 347 319 304 309 280 273 240 208
317 30 15 8 16 6 5 351 345 341 345 345 345 336 331 325 324 328 328 333 336 335 339 325 347 350 351 353 320 45 353 318 328 303 247 250 271 213
18 20 11 11 14 3 3 354 338 332 1 348 341 333 331 326 320 331 332 336 340 354 351 352 357 357 355 342 326 335 36 2 333 306 345 334 300 132
17 355 11 16 20 3 360 354 335 348 358 349 338 331 330 329 318 331 336 330 340 358 1 355 345 341 341 329 3 24 18 40 29 3 335 325 345 345
15 348 358 16 18 2 6 350 346 8 358 344 332 331 331 325 334 330 342 343 345 359 6 356 356 356 13 17 8 11 12 34 43 51 51 46 1 6
17 348 0 14 15 6 10 351 4 4 355 341 327 334 328 325 342 333 342 347 346 355 357 12 5 7 8 5 12 13 15 17 38 42 55 52 59 62